IRIDIUM 33 DEB, 33777

Orbit data source: Space-Track

IRIDIUM 33 DEB, 33777 is space debris in LEO originally from a launch on Sun, 14 Sep 1997 UTC launched from the Tyuratam Missile And Space Complex (TTMTR). The debris from Iridium 33, an American commercial communications satellite, has been tracked extensively since its accidental collision with the defunct Russian satellite Cosmos 2251 in 2009. This event, occurring at high speed in low Earth orbit (LEO), generated thousands of pieces of space debris, significantly increasing the risk of further collisions. The Iridium 33 debris cloud has impacted space traffic management and orbital debris mitigation strategies, making it a subject of ongoing study in space situational awareness.

Loading next visibility...
Identifier
33777, 1997-051Q
Orbit
LEO
Country
Flag of USUS
Related business
Manufacturer
Unknown
Mission
Spacecraft
Bus & Motor
Unknown
Mass
Unknown
Launch date (UTC)
1997-09-14 (28 years ago)
Launch vehicle
Unknown
Launch site
Tyuratam Missile And Space Complex (TTMTR)
Object type
Payload
Rocket body
Debris
Shape & HBR
Unknown shape, 0.7 m
Radar Cross Section
Medium (>0.1 m² and <1 m²)

Expand to show TLE details & history
Last TLE update: 7 hours ago

TLE from 7 hours ago
0 IRIDIUM 33 DEB
1 33777U 97051Q   26063.55038012  .00004381  00000-0  98498-3 0  9997
2 33777  86.3834 359.5965 0006946   4.1092 356.0172 14.56290026897243
Epoch: 2026-03-04T13:12Z
TLE epoch observation values (Epoch: 2026-03-04T13:12:32.842Z)
Latitude
0.00001°
Longitude
-0.85382°
Altitude
703.351 km
Speed
7.507 km/s
True Right ascension
23h 58m 23s
True Declination
0° 00' 00"
Sunlit
Object was in daylight at epoch
Visualization orbit readout
Latitude
Unknown
Longitude
Unknown
Altitude
Unknown
Speed
Unknown
Apparent Right ascension
Unknown
Apparent Declination
Unknown
Sunlit
N/A
Visualization observer readout
Local Sidereal Time
00:26:46
Azimuth
Unknown
Elevation
Unknown
Doppler factor
Unknown
Orbital elements
Apogee altitude
707.03 km
Perigee altitude
697.194 km
Semi-major axis
7,080.249 km
Eccentricity
0.00069
Inclination
86.3834°
RAAN
359.5965°
Arg. of periapsis
4.1092°
True anomaly
356.01167°
Mean anomaly
356.0172°
Eccentric anomaly
356.01443°
Mean motion
3.64309 °/min
Orbital period
98.82 mins
BSTAR
0.00098498
Loading maneuver chart data...
Computing Atmospheric mass density...

Documentation

Showing up to 5 results
|